Have a Safe July 4th! 

Flight Track Log - Related Links

Times and Time Zones

All times are in EDT time to prevent confusion due to time zone crossing. See the SKW6290 flight status page for this flight to view local times or setup timezone preferences in your user account.

Time Position Orientation Groundspeed Altitude Reporting Facility
EDT Latitude Longitude Course Direction KTS MPH feet Rate Location/Type
Wed 06:43:34 PM 37.6333 -122.3667 360° North 165 190 600  Level Northern Cal TRACON
Wed 06:44:34 PM 37.6833 -122.3667 360° North 204 235 2,800 2,200 Climbing Northern Cal TRACON
Wed 06:45:34 PM 37.7167 -122.4167 310° West 256 295 5,000 2,079 Climbing Northern Cal TRACON
Wed 06:46:15 PM 37.6986 -122.4672 246° West 259 298 6,300 2,176 Climbing Oakland Center
Wed 06:47:16 PM 37.6436 -122.5336 224° Southwest 281 323 8,700 2,000 Climbing Oakland Center
Wed 06:48:18 PM 37.5633 -122.5589 194° South 296 341 10,400 1,561 Climbing Oakland Center
Wed 06:49:19 PM 37.4722 -122.5681 185° South 345 397 11,900 1,659 Climbing Oakland Center
Wed 06:50:21 PM 37.4072 -122.4850 135° Southeast 345 397 13,800 1,902 Climbing Oakland Center
Wed 06:51:22 PM 37.3392 -122.3692 126° Southeast 346 398 15,800 1,623 Climbing Oakland Center
Wed 06:52:23 PM 37.2806 -122.2714 127° Southeast 352 405 17,100 1,220 Climbing Oakland Center
Wed 06:53:25 PM 37.2206 -122.1683 126° Southeast 364 419 18,300 1,073 Climbing Oakland Center
Wed 06:54:26 PM 37.1564 -122.0611 127° Southeast 383 441 19,300 934 Climbing Oakland Center
Wed 06:55:27 PM 37.0917 -121.9514 126° Southeast 391 450 20,200 1,073 Climbing Oakland Center
Wed 06:56:29 PM 37.0236 -121.8381 127° Southeast 405 466 21,500 1,073 Climbing Oakland Center
Wed 06:57:30 PM 36.9558 -121.7281 128° Southeast 403 464 22,400 829 Climbing Oakland Center
Wed 06:58:32 PM 36.8858 -121.6150 128° Southeast 410 472 23,200 927 Climbing Oakland Center
Wed 06:59:33 PM 36.8033 -121.4781 127° Southeast 419 482 24,300 885 Climbing Oakland Center
Wed 07:00:34 PM 36.7308 -121.3594 127° Southeast 426 490 25,000 683 Climbing Oakland Center
Wed 07:01:36 PM 36.6581 -121.2406 127° Southeast 432 497 25,700 732 Climbing Oakland Center
Wed 07:02:37 PM 36.5844 -121.1172 127° Southeast 439 505 26,500 639 Climbing Oakland Center
Wed 07:03:38 PM 36.5100 -120.9947 127° Southeast 442 509 27,000 488 Climbing Oakland Center
Wed 07:04:40 PM 36.4339 -120.8725 128° Southeast 447 514 27,500 488 Climbing Oakland Center
Wed 07:05:41 PM 36.3561 -120.7478 128° Southeast 453 521 28,000 492 Climbing Oakland Center
Wed 07:06:42 PM 36.2786 -120.6194 127° Southeast 461 531 28,500 488 Climbing Oakland Center
Wed 07:07:44 PM 36.1992 -120.4931 128° Southeast 463 533 29,000 244 Climbing Oakland Center
Wed 07:08:45 PM 36.1025 -120.3378 128° Southeast 470 541 29,000  Level Oakland Center
Wed 07:09:46 PM 36.0194 -120.2053 128° Southeast 478 550 29,000  Level Oakland Center
Wed 07:10:48 PM 35.9375 -120.0731 127° Southeast 482 555 29,000  Level Oakland Center
Wed 07:11:49 PM 35.8550 -119.9442 128° Southeast 480 552 29,000  Level Oakland Center
Wed 07:12:52 PM 35.7728 -119.8125 128° Southeast 477 549 29,000  Level Los Angeles Center
Wed 07:13:54 PM 35.6914 -119.6858 128° Southeast 473 544 29,000  Level Los Angeles Center
Wed 07:14:56 PM 35.6258 -119.5833 128° Southeast 472 543 29,000  Level Los Angeles Center
Wed 07:15:58 PM 35.5264 -119.4269 128° Southeast 480 552 29,000  Level Los Angeles Center
Wed 07:17:00 PM 35.4264 -119.2731 129° Southeast 480 552 29,000  Level Los Angeles Center
Wed 07:18:02 PM 35.3431 -119.1436 128° Southeast 482 555 29,000  Level Los Angeles Center
Wed 07:19:04 PM 35.2597 -119.0131 128° Southeast 484 557 29,000  Level Los Angeles Center
Wed 07:20:06 PM 35.1753 -118.8861 129° Southeast 482 555 29,000  Level Los Angeles Center
Wed 07:21:08 PM 35.1094 -118.7847 128° Southeast 480 552 29,000 -97 Level Los Angeles Center
Wed 07:22:10 PM 35.0086 -118.6328 129° Southeast 479 551 28,800 -677 Descending Los Angeles Center
Wed 07:23:12 PM 34.9058 -118.4764 129° Southeast 492 566 27,600 -1,016 Descending Los Angeles Center
Wed 07:24:14 PM 34.8272 -118.3575 129° Southeast 506 582 26,700 -919 Descending Los Angeles Center
Wed 07:25:16 PM 34.7381 -118.2261 130° Southeast 508 585 25,700 -1,065 Descending Los Angeles Center
Wed 07:26:18 PM 34.6356 -118.0686 128° Southeast 500 575 24,500 -1,065 Descending Los Angeles Center
Wed 07:27:20 PM 34.5669 -117.9239 120° Southeast 502 578 23,500 -1,113 Descending Los Angeles Center
Wed 07:28:22 PM 34.5008 -117.7803 119° Southeast 494 568 22,200 -1,500 Descending Los Angeles Center
Wed 07:29:24 PM 34.4339 -117.6350 119° Southeast 489 563 20,400 -1,790 Descending Los Angeles Center
Wed 07:30:26 PM 34.3647 -117.4833 119° Southeast 463 533 18,500 -1,597 Descending Los Angeles Center
Wed 07:31:28 PM 34.3036 -117.3522 119° Southeast 448 516 17,100 -871 Descending Los Angeles Center
Wed 07:32:30 PM 34.2467 -117.2292 119° Southeast 426 490 16,700 -823 Descending Los Angeles Center
Wed 07:33:32 PM 34.1883 -117.1047 120° Southeast 414 476 15,400 -1,258 Descending Los Angeles Center
Wed 07:34:34 PM 34.1364 -116.9967 120° Southeast 379 436 14,100 -677 Descending Los Angeles Center
Wed 07:35:36 PM 34.0861 -116.8839 118° Southeast 357 411 14,000  Descending Los Angeles Center
Wed 07:36:38 PM 34.0425 -116.7942 120° Southeast 316 364 14,100 -194 Climbing Los Angeles Center
Wed 07:37:40 PM 34.0036 -116.7086 119° Southeast 295 339 13,600 -1,161 Descending Los Angeles Center
Wed 07:38:42 PM 33.9656 -116.6289 120° Southeast 278 320 11,700 -1,839 Descending Los Angeles Center
Wed 07:39:44 PM 33.9233 -116.5397 120° Southeast 261 300 9,800 -2,016 Descending Los Angeles Center
Wed 07:40:47 PM 33.8947 -116.4833 121° Southeast 238 274 7,500 -2,610 Descending Los Angeles Center
Wed 07:42:18 PM 33.8333 -116.4000 132° Southeast 203 234 3,100 -2,185 Descending Southern California TRACON
Wed 07:43:18 PM 33.8000 -116.4167 203° Southwest 168 193 2,000 -905 Descending Southern California TRACON
Wed 07:44:24 PM 33.8000 -116.4833 270° West 164 189 1,200 -727 Descending Southern California TRACON

Login

Don't have an account? Register now (free) for customized features, flight alerts, and more!